Hourly Weather Roundup
Issued by NWS Central Illinois

Home | Current Version | Previous Version | Text Only | Print | Product List | Glossary On
Versions: 1 2 3 4 5 6 7 8 9 10 11 12 13 14 15 16 17 18 19 20 21 22 23 24 25 26 27 28 29 30 31 32 33 34 35 36 37 38 39 40 41 42 43 44 45 46 47 48 49 50
000
NZUS43 KILX 292110
HWRILX

AREA WEATHER ROUNDUP
NATIONAL WEATHER SERVICE, LINCOLN IL
400 PM CDT FRI MAY 29 2015


CITY           SKY/WX    TMP DP  RH WIND       PRES   REMARKS
BLOOMINGTON    PTSUNNY   84  68  58 S23       29.96F HX  87
CHAMPAIGN      MOSUNNY   86  62  44 S22G29    29.98F HX  86
DANVILLE       MOSUNNY   85  63  48 SW12      29.96F HX  85
DECATUR        PTSUNNY   83  66  56 S15G22    29.98F HX  85
EFFINGHAM      PTSUNNY   83  61  47 S6        30.00F HX  83
FLORA          SUNNY     84  63  48 S14       30.00F HX  85
GALESBURG      PTSUNNY   79  65  62 SW14      29.95S HX  81
JACKSONVILLE   PTSUNNY   83  68  59 W13G18    29.95F THUNDER HX  86
LACON          PTSUNNY   81  63  55 SW13      29.93F HX  82
LAWRENCEVILLE  PTSUNNY   84  65  52 S12       30.02F HX  86
LITCHFIELD     CLOUDY    75  67  76 S12       29.98F
$$


CITY           SKY/WX    TMP DP  RH WIND       PRES   REMARKS
LINCOLN        MOSUNNY   83  65  54 S12G18    29.92F HX  84
MACOMB         PTSUNNY   79  65  63 SW15      29.98S HX  81
MATTOON        PTSUNNY   80  69  69 S5        30.00F HX  83
MT CARMEL AP   PTSUNNY   88  59  37 S12       30.01F HX  87
OLNEY-NOBLE AP PTSUNNY   82  64  54 SE13      30.00F HX  84
PARIS          CLOUDY    84  64  50 S13G21    30.01F HX  85
PEORIA         MOSUNNY   84  64  50 SW14      29.94F HX  85
PONTIAC        MOSUNNY   85  68  56 SW17G24   29.95S HX  88
RANTOUL        PTSUNNY   85  64  48 SW14G23   29.98S HX  87
ROBINSON       MOSUNNY   85  63  47 S13       30.03S HX  86
SPRINGFIELD    PTSUNNY   83  70  64 SE17      29.95F HX  87
TAYLORVILLE    PTSUNNY   79  68  69 S13       29.97F HX  81
$$

...REGIONAL REPORTS...


CITY           SKY/WX    TMP DP  RH WIND       PRES   REMARKS
CHICAGO O`HARE PTSUNNY   78  64  61 S22G28    29.91F HX  80
KANKAKEE       PTSUNNY   85  65  52 SW17G25   29.95F HX  86
MOLINE         PTSUNNY   81  65  58 SW17      29.91F HX  83
MOUNT VERNON   PTSUNNY   84  66  54 S14       30.01F HX  86
PITTSFIELD     CLOUDY    75  68  80 SW7       29.99F
QUINCY         CLOUDY    76  64  66 SW12      29.97F
ROCKFORD       CLOUDY    77  64  64 SW14G23   29.92F
$$


CITY           SKY/WX    TMP DP  RH WIND       PRES   REMARKS
BURLINGTON     CLOUDY    78  68  71 SW15      29.94F HX  80
CEDAR RAPIDS   LGT RAIN  75  67  76 SW16      29.91S
DES MOINES     CLOUDY    72  63  73 SW15      29.91F
KIRKSVILLE     CLOUDY    74  66  76 SW9       29.98F
OTTUMWA        CLOUDY    73  67  81 SW12      29.93F
ST LOUIS       PTSUNNY   83  65  54 SW13      29.98F HX  85
$$


CITY           SKY/WX    TMP DP  RH WIND       PRES   REMARKS
TERRE HAUTE    PTSUNNY   84  66  54 S15       30.01F HX  86
EVANSVILLE     MOSUNNY   82  68  62 S8        30.04F HX  85
INDIANAPOLIS   MOSUNNY   83  63  50 S17G23    30.02F HX  84
LAFAYETTE      PTSUNNY   83  62  49 SW9       29.98F HX  84
MADISON        PTSUNNY   77  64  64 S12       29.87F
MILWAUKEE      PTSUNNY   74  67  78 S16       29.91F
$$





USA.gov is the U.S. government's official web portal to all federal, state and local government web resources and services.